Overview Statistics Trail Chart Weather Telemetry Raw packets
 

This is the latest recevied weather packets stored in our database for station/object AA6HF. If no packets are shown the sender has not sent any weather packets the latest 10 day(s).

<< 58 59 60 61 62 63 64 >>
Time Temp. Humidity Pressure Rain* Wind** Luminosity Snow
1788280998 33.89° C 14% 1010.4 hPa 0 mm - - -
1788280698 33.33° C 14% 1010.4 hPa 0 mm - - -
1788280398 33.33° C 14% 1010.4 hPa 0 mm - - -
1788280098 33.33° C 14% 1010.4 hPa 0 mm - - -
1788279798 33.89° C 13% 1010.3 hPa 0 mm - - -
1788279498 33.89° C 15% 1010.3 hPa 0 mm - - -
1788279198 33.33° C 15% 1010.3 hPa 0 mm - - -
1788278898 33.33° C 15% 1010.2 hPa 0 mm - - -
1788278598 32.78° C 14% 1010.3 hPa 0 mm - - -
1788278298 32.22° C 15% 1010.3 hPa 0 mm - - -
1788277998 32.22° C 16% 1010.3 hPa 0 mm - - -
1788277698 32.22° C 15% 1010.3 hPa 0 mm - - -
1788277398 32.22° C 15% 1010.3 hPa 0 mm - - -
1788277098 32.22° C 16% 1010.2 hPa 0 mm - - -
1788276798 32.22° C 17% 1010.2 hPa 0 mm - - -
1788276498 31.67° C 18% 1010.2 hPa 0 mm - - -
1788276198 30.56° C 18% 1010.2 hPa 0 mm - - -
1788275898 30° C 18% 1010.2 hPa 0 mm - - -
1788275598 30° C 20% 1010.2 hPa 0 mm - - -
1788275298 29.44° C 20% 1010.2 hPa 0 mm - - -
1788274998 28.33° C 22% 1010.2 hPa 0 mm - - -
1788274699 27.22° C 26% 1010.2 hPa 0 mm - - -
1788274399 26.67° C 26% 1010.2 hPa 0 mm - - -
1788274099 25.56° C 35% 1010.2 hPa 0 mm - - -
1788273799 23.89° C 37% 1010.1 hPa 0 mm - - -

* Rain latest hour (hover to see other rain measurements)
** Current wind speed in m/s (hover to see current wind gust speed)